Date String (YYYY-MM-DD hh:mm:ss) UTC,Instrument flags,Ambient pressure (hPa),Sample flow (lpm),Bypass flow (lpm),Sample temperature (°C),Ambient temperature (°C),ASC tube jacket temperature (°C),LED temperature (°C),Box temperature (°C),Sample RH (%),Span deviation,Mass concentration (μg/m³),Mass concentration (μg/m³),Mass concentration (μg/m³)
DateTimeUTC,F1_M11,P_M11,Q1_M11,Q2_M11,T1_M11,T2_M11,T3_M11,T4_M11,T5_M11,U1_M11,ZSPAN_M11,X0_M11,X2_M11,X1_M11
2022-11-13 09:00:00,,0821.1,5.00,0.00,22.2,21.5,00.0,31.1,24.2,08.0,0000.2,0009.65,0005.43,0004.98
2022-11-13 09:01:00,,0821.1,5.00,0.00,22.4,22.4,00.0,31.1,24.4,07.8,-001.0,0009.18,0005.51,0005.05
2022-11-13 09:02:00,,0821.1,5.01,0.00,22.4,22.3,00.0,31.1,24.4,07.7,-000.7,0009.18,0005.58,0005.11
2022-11-13 09:03:00,,0821.1,4.99,0.00,22.4,22.0,00.0,31.1,24.4,07.5,-000.7,0009.37,0005.67,0005.18
2022-11-13 09:04:00,,0821.1,5.00,0.00,22.4,21.7,00.0,31.2,24.3,06.9,-000.4,0009.50,0005.70,0005.18
2022-11-13 09:05:00,,0821.1,4.99,0.00,22.4,21.5,00.0,31.2,24.3,06.7,-000.4,0009.33,0005.61,0005.11
2022-11-13 09:06:00,,0821.1,4.99,0.00,22.4,21.3,00.0,31.2,24.2,06.8,0000.8,0009.72,0005.49,0005.02
2022-11-13 09:07:00,,0821.1,5.01,0.00,22.4,21.1,00.0,31.2,24.2,06.9,0001.0,0009.85,0005.40,0004.96
2022-11-13 09:08:00,,0821.1,5.01,0.00,22.4,21.0,00.0,31.2,24.2,06.7,0002.7,0009.79,0005.27,0004.85
2022-11-13 09:09:00,,0821.1,5.00,0.00,22.3,21.0,00.0,31.2,24.1,06.8,0004.0,0010.09,0005.14,0004.71
2022-11-13 09:10:00,,0821.1,5.00,0.00,22.3,20.9,00.0,31.2,24.1,07.0,0004.1,0009.91,0004.96,0004.56
2022-11-13 09:11:00,,0821.1,5.00,0.00,22.3,20.8,00.0,31.2,24.0,06.9,0004.1,0009.72,0004.79,0004.38
2022-11-13 09:12:00,,0821.1,5.00,0.00,22.3,20.7,00.0,31.2,24.0,06.9,0003.9,0009.63,0004.58,0004.20
2022-11-13 09:13:00,,0821.1,4.99,0.00,22.2,20.7,00.0,31.2,24.0,07.1,0003.7,0009.69,0004.43,0004.05
2022-11-13 09:14:00,,0821.1,5.01,0.00,22.2,20.7,00.0,31.2,24.0,07.0,0003.6,0009.36,0004.26,0003.91
2022-11-13 09:15:00,,0821.0,4.99,0.00,22.2,20.6,00.0,31.2,24.0,07.0,0002.7,0009.30,0004.21,0003.88
2022-11-13 09:16:00,,0821.0,5.00,0.00,22.2,20.6,00.0,31.1,24.0,07.0,0002.5,0009.30,0004.22,0003.91
2022-11-13 09:17:00,,0821.1,5.01,0.00,22.2,21.3,00.0,31.1,24.1,07.0,0002.1,0008.94,0004.26,0003.95
2022-11-13 09:18:00,,0821.1,4.99,0.00,22.3,22.2,00.0,31.1,24.3,06.9,0002.9,0008.61,0004.28,0003.96
2022-11-13 09:19:00,,0821.0,5.01,0.00,22.4,22.2,00.0,31.1,24.4,06.9,0002.0,0008.78,0004.33,0004.00
2022-11-13 09:20:00,,0821.0,5.00,0.00,22.4,21.8,00.0,31.2,24.3,07.0,0001.8,0008.65,0004.35,0004.05
2022-11-13 09:21:00,,0821.1,5.00,0.00,22.4,21.5,00.0,31.2,24.3,07.1,0001.5,0009.57,0004.40,0004.10
2022-11-13 09:22:00,,0821.1,5.00,0.00,22.4,21.3,00.0,31.2,24.2,07.5,0001.7,0010.63,0004.54,0004.22
2022-11-13 09:23:00,,0821.1,5.00,0.00,22.3,21.1,00.0,31.2,24.2,07.7,0002.3,0010.92,0004.72,0004.36
2022-11-13 09:24:00,,0821.1,4.99,0.00,22.3,21.0,00.0,31.2,24.2,07.7,0002.7,0011.60,0004.90,0004.52
2022-11-13 09:25:00,,0821.0,4.99,0.00,22.3,20.9,00.0,31.2,24.1,07.7,0002.7,0012.50,0005.08,0004.67
2022-11-13 09:26:00,,0821.0,5.00,0.00,22.3,20.8,00.0,31.2,24.1,07.8,0003.1,0013.29,0005.28,0004.83
2022-11-13 09:27:00,,0821.0,5.01,0.00,22.3,20.8,00.0,31.2,24.1,07.9,0004.0,0013.53,0005.46,0005.01
2022-11-13 09:28:00,,0821.0,5.01,0.00,22.3,20.8,00.0,31.2,24.1,07.9,0004.4,0014.13,0005.69,0005.20
2022-11-13 09:29:00,,0821.0,5.00,0.00,22.2,20.7,00.0,31.2,24.0,08.0,0004.4,0014.87,0005.92,0005.39
2022-11-13 09:30:00,,0821.0,4.99,0.00,22.2,20.7,00.0,31.2,24.0,08.1,0004.4,0015.54,0006.14,0005.58
2022-11-13 09:31:00,,0821.0,5.00,0.00,22.2,20.6,00.0,31.1,24.0,08.2,0004.4,0015.29,0006.34,0005.75
2022-11-13 09:32:00,,0821.0,5.01,0.00,22.2,20.9,00.0,31.1,24.0,08.2,0005.6,0014.75,0006.53,0005.91
2022-11-13 09:33:00,,0820.9,5.00,0.00,22.3,21.8,00.0,31.1,24.2,08.2,0006.0,0014.43,0006.62,0006.00
2022-11-13 09:34:00,,0820.9,4.99,0.00,22.4,22.4,00.0,31.1,24.4,08.2,0005.3,0014.80,0006.73,0006.09
2022-11-13 09:35:00,,0820.9,5.00,0.00,22.4,21.9,00.0,31.1,24.4,08.3,0006.1,0014.34,0006.86,0006.17
2022-11-13 09:36:00,,0820.9,5.01,0.00,22.4,21.5,00.0,31.2,24.3,08.3,0007.0,0014.07,0007.02,0006.28
2022-11-13 09:37:00,,0820.9,5.00,0.00,22.3,21.1,00.0,31.2,24.2,08.4,0006.8,0013.63,0007.11,0006.38
2022-11-13 09:38:00,,0820.9,4.99,0.00,22.3,20.8,00.0,31.2,24.1,08.4,0006.8,0013.64,0007.18,0006.45
2022-11-13 09:39:00,,0820.9,5.01,0.00,22.2,20.6,00.0,31.1,24.0,08.4,0004.7,0013.53,0007.25,0006.53
2022-11-13 09:40:00,,0820.9,4.98,0.00,22.2,20.4,00.0,31.1,23.9,08.5,0001.2,0013.37,0007.38,0006.61
2022-11-13 09:41:00,,0820.9,5.01,0.00,22.2,20.3,00.0,31.1,23.9,08.4,0002.8,0012.88,0007.43,0006.67
2022-11-13 09:42:00,,0821.0,5.00,0.00,22.1,20.2,00.0,31.1,23.8,08.4,0003.2,0013.02,0007.46,0006.71
2022-11-13 09:43:00,,0820.9,4.99,0.00,22.1,20.1,00.0,31.1,23.8,08.5,0001.6,0014.16,0007.49,0006.77
2022-11-13 09:44:00,,0820.9,5.01,0.00,22.0,20.0,00.0,31.0,23.7,08.5,0000.6,0014.12,0007.55,0006.83
2022-11-13 09:45:00,,0820.9,4.98,0.00,22.0,20.0,00.0,31.0,23.7,08.6,0005.9,0014.00,0007.55,0006.86
2022-11-13 09:46:00,,0820.9,5.00,0.00,21.9,19.9,00.0,31.0,23.6,08.6,0004.9,0014.02,0007.55,0006.89
2022-11-13 09:47:00,,0820.9,5.01,0.00,21.9,20.0,00.0,30.9,23.6,08.7,0003.3,0014.22,0007.56,0006.93
2022-11-13 09:48:00,,0820.8,4.99,0.00,22.0,21.0,00.0,30.9,23.8,08.6,0004.9,0014.46,0007.59,0006.93
2022-11-13 09:49:00,,0820.9,5.01,0.00,22.1,22.0,00.0,30.9,24.1,08.5,0004.7,0015.23,0007.60,0006.90
2022-11-13 09:50:00,,0820.9,5.00,0.00,22.1,22.1,00.0,30.9,24.2,08.4,0004.8,0015.84,0007.61,0006.89
2022-11-13 09:51:00,,0820.9,5.00,0.00,22.2,21.7,00.0,31.0,24.2,08.4,0005.8,0015.89,0007.60,0006.86
2022-11-13 09:52:00,,0820.9,4.99,0.00,22.2,21.5,00.0,31.0,24.1,08.4,0005.2,0015.93,0007.59,0006.85
2022-11-13 09:53:00,,0820.9,5.00,0.00,22.2,21.2,00.0,31.0,24.1,08.2,0005.0,0015.94,0007.59,0006.80
2022-11-13 09:54:00,,0820.9,5.01,0.00,22.2,20.9,00.0,31.0,24.0,08.3,0005.2,0014.99,0007.60,0006.77
2022-11-13 09:55:00,,0820.8,5.01,0.00,22.1,20.8,00.0,31.0,24.0,08.4,0004.4,0014.80,0007.55,0006.74
2022-11-13 09:56:00,,0820.8,5.00,0.00,22.1,20.7,00.0,31.0,23.9,08.4,0004.0,0014.63,0007.56,0006.73
2022-11-13 09:57:00,,0820.8,4.98,0.00,22.1,20.6,00.0,31.0,23.9,08.5,0003.5,0014.41,0007.54,0006.71
2022-11-13 09:58:00,,0820.8,5.01,0.00,22.1,20.6,00.0,31.0,23.9,08.5,0002.8,0014.26,0007.52,0006.69
2022-11-13 09:59:00,,0820.9,5.01,0.00,22.1,20.5,00.0,31.0,23.9,08.6,0002.9,0013.87,0007.56,0006.70
